Regional Weather Roundup
Issued by NWS

Home | Current Version | Previous Version | Graphics & Text | Print | Product List | Glossary Off
Versions: 1 2 3 4 5 6 7 8 9 10 11 12 13 14 15 16 17 18 19 20 21 22 23 24 25 26 27 28 29 30 31 32 33 34 35 36 37 38 39 40 41 42 43 44 45 46 47 48 49 50

000
ASUS43 KMKX 290321
RWRWI

WISCONSIN REGIONAL WEATHER ROUNDUP
NATIONAL WEATHER SERVICE MILWAUKEE/SULLIVAN WI
900 PM CST SUN DEC 28 2014

NOTE: "FAIR" INDICATES FEW OR NO CLOUDS BELOW 12,000 FEET WITH NO
SIGNIFICANT WEATHER AND/OR OBSTRUCTIONS TO VISIBILITY.

WIZ001-002-006>008-014>016-023>028-290400-
NORTHWEST WISCONSIN

CITY           SKY/WX    TMP DP  RH WIND       PRES   REMARKS
SUPERIOR ARPT  CLEAR      7  -1  69 NW6       30.36R WCI  -3
ASHLAND        CLEAR      1  -4  79 SW6       30.32R WCI -10
HAYWARD        CLEAR     -4  -8  83 CALM      30.29R
SIREN          CLEAR      5  -2  71 NE6       30.32R WCI  -6
CUMBERLAND     FAIR       5  -4  66 N6        30.27R WCI  -6
RICE LAKE      FAIR       5  -3  68 N5        30.30R WCI  -4
CHETEK         FAIR       2  -1  86 W3        30.28R
LADYSMITH      CLEAR      3  -2  81 N7        30.28R WCI  -9
EAU CLAIRE     CLEAR      5   0  79 NE3       30.28R
MENOMONIE      CLEAR      9   6  87 CALM      30.30R
NEW RICHMOND   CLEAR      1  -5  75 NE6       30.29S WCI -11
OSCEOLA        CLEAR      1  -2  86 CALM      30.33S
$$

WIZ003>005-009-010-017-018-290400-
NORTH CENTRAL WISCONSIN

CITY           SKY/WX    TMP DP  RH WIND       PRES   REMARKS
MANITOWISH WTR PTCLDY   -12 -16  80 CALM      30.21S
ARBOR VITAE    CLEAR     -1  -5  84 CALM      30.22R
WOODRUFF       CLEAR     -1  -5  84 CALM      30.22R
RHINELANDER    CLEAR      3   1  91 CALM      30.20F
EAGLE RIVER    CLEAR     -6 -11  79 CALM      30.21R
LAND O LAKES   FLURRIES  -3  -7  84 CALM      30.20S
PHILLIPS       CLEAR     -8 -11  86 CALM      30.23S
TOMAHAWK       FAIR       1  -3  86 CALM      30.23S
MEDFORD        CLEAR    N/A N/A N/A N3        30.22R
MERRILL        CLEAR      5   2  90 CALM      30.23R
$$

WIZ029-030-035-036-043>047-290400-
CENTRAL WISCONSIN

CITY           SKY/WX    TMP DP  RH WIND       PRES   REMARKS
WAUSAU         CLEAR     10   6  84 N3        30.23R
MOSINEE        CLEAR     10   9  92 N6        30.24R WCI   1
MARSHFIELD     CLEAR      7   4  87 NW6       30.24R FOG     WCI  -3
STEVENS POINT  CLEAR     13  11  90 NW6       30.25R WCI   4
WAUPACA        CLEAR     20  15  79 NW6       30.26R WCI  13
WAUTOMA        CLEAR     21  14  74 N7        30.26R WCI  12
WISC RAPIDS    CLEAR     16  11  80 NW6       30.27R WCI   7
CAMP DOUGLAS   CLEAR     17  17  99 N2        30.26R
$$

WIZ011>013-019>022-031-037>040-048>050-290400-
NORTHEAST WISCONSIN

CITY           SKY/WX    TMP DP  RH WIND       PRES   REMARKS
ANTIGO         CLEAR     -1  -3  92 N5        30.20S WCI -11
SHAWANO        CLEAR     19  11  70 W5        30.27R WCI  12
OCONTO         CLEAR     18   9  69 N8        30.26R WCI   7
STURGEON BAY   PTCLDY    19  10  68 N15       30.25R WCI   5
GREEN BAY      CLEAR     22  15  75 N6        30.25R WCI  14
MANITOWOC      CLOUDY    24  18  77 N12       30.24R WCI  13
APPLETON       MOCLDY    21  14  73 N9        30.23R WCI  11
CLINTONVILLE   CLEAR     19  14  79 N7        30.25R WCI  10
OSHKOSH        CLOUDY    25  17  72 N8        30.24R WCI  16
$$

WIZ032>034-041-042-053>061-290400-
SOUTHWEST WISCONSIN

CITY           SKY/WX    TMP DP  RH WIND       PRES   REMARKS
LA CROSSE      CLEAR     15  11  83 NW5       30.28R WCI   8
SPARTA         CLEAR     15  14  93 CALM      30.28R
VIROQUA        CLEAR     20  17  89 N9        30.23R WCI   9
BOSCOBEL       CLOUDY    22  18  85 CALM      30.26R FOG
PRAIRIE DU CHI CLOUDY    26  19  77 CALM      30.26R
PLATTEVILLE    PTCLDY    24  20  85 CALM      30.23R
$$

WIZ056-057-062-063-064-067-068-290400-
SOUTH CENTRAL WISCONSIN

CITY           SKY/WX    TMP DP  RH WIND       PRES   REMARKS
REEDSBURG      CLOUDY    24  18  80 N12       30.25R WCI  12
BARABOO/DELLS  CLOUDY    25  19  77 N6        30.24R WCI  18
LONE ROCK      CLOUDY    32  19  58 N7        30.25R WCI  26
MINERAL POINT  MOCLDY    27  21  80 N3        30.21R
MADISON        CLOUDY    29  19  66 CALM      30.23R
MIDDLETON      CLOUDY    31  21  66 CALM      30.23R
WATERTOWN      CLOUDY    24  23  94 CALM      30.23R
MONROE         MOCLDY    27  19  74 NW6       30.21R WCI  20
JANESVILLE     PTCLDY    27  19  74 N5        30.22R WCI  21
$$

WIZ051-052-058>065-066-070>072-290400-
SOUTHEAST WISCONSIN

CITY           SKY/WX    TMP DP  RH WIND       PRES   REMARKS
MILWAUKEE      FAIR      26  17  68 N5        30.23R WCI  20
WAUKESHA       PTCLDY    21  19  93 CALM      30.23R
MILWAUKEE/TIMM PTCLDY    23  18  80 CALM      30.23R
RACINE         CLEAR     26  17  68 NW3       30.24R
BURLINGTON     CLEAR     19  17  93 CALM      30.22R
KENOSHA        PTCLDY    25  19  78 N3        30.23R
FOND DU LAC    CLOUDY    26  18  71 N9        30.24R WCI  17
SHEBOYGAN      CLOUDY    26  20  77 N10       30.23R WCI  16
WEST BEND      CLOUDY    27  21  80 CALM      30.22R
JUNEAU         CLOUDY    27  21  80 N8        30.23R WCI  18
$$

LSZ147-162-290400-
LAKE SUPERIOR

STATION/POSITION TIME  TEMP    WIND        PRES    WAVE
                       AIR SEA DIR/SP/G            HT/PER
                 (UTC) (F)     (DEG/KT/KT) (MB)    (FT/S)
DEVILS ISLAND    0300   12     300/ 12/ 15 1028.1R
PORT WING        0200   14     310/ 15/ 18 1027.1R
SAXON HARBOR     0200    7     200/  5/  7 1026.1R
$$

LMZ867-665-643>646-290400-
LAKE MICHIGAN

STATION/POSITION TIME  TEMP    WIND        PRES    WAVE
                       AIR SEA DIR/SP/G            HT/PER
                 (UTC) (F)     (DEG/KT/KT) (MB)    (FT/S)
CHAMBERS ISLAND  0200   19     300/ 14/ 21 1024.4R
NORTHPORT PIER   0208   21     320/ 17/ 25 1024.0R
SISTER BAY       0213          340/ 22/ 26   N/A
ALGOMA LAKESHORE 0245          340/ 12/ 16   N/A
KEWAUNEE LAKESHO 0300   22     340/  7/ 10 1023.1R
SHEBOYGAN LAKESH 0300   27 36  340/ 11/ 13 1025.0R
PORT WASHINGTON  0200   27     300/  2/  3 1024.0
MILWAUKEE LAKESH 0300   29     340/  6/  7   N/A
KENOSHA   LAKESH 0300   29     340/  6/  7 1023.4R
$$

TC  - TEMPERATURE IN CELSIUS
VSB - VISIBILITY IN STATUTE MILES
WCI - WIND CHILL INDEX
HX  - HEAT INDEX



USA.gov is the U.S. government's official web portal to all federal, state and local government web resources and services.